Weather in Bala

Russia / Sakha (Yakutia) Republic     67°10′48″N   132°49′59″E
temp.,
°C
wind,
m/s
gust,
m/s
humid.,
%
clouds,
%
prec.,
mm/h
press.,
hPa
HPBL,
m
6 march, sat
sat601:00−32sw1110090 0.0 102819
04:00−34ssw1110081 0.0 102819
07:00−35sw1110021 0.0 102819
10:00−32ssw129411 0.0 102722
13:00−28sw11831 0.0 1025220
16:00−26sw118521 0.0 1023253
19:00−32s119811 0.0 102319
22:00−33s119912 0.0 102319
7 march, sun
sun701:00−34ssw1210046 0.0 102219
04:00−34ssw229959 0.0 102119
07:00−35s229965 0.0 102019
10:00−33ssw229465 0.0 101837
13:00−28ssw238660 0.0 1016241
16:00−27ssw128362 0.0 1014293
19:00−32sse119729 0.0 101419
22:00−33sse119716 0.0 101219
8 march, mon
mon801:00−33sse129653 0.0 101119
04:00−32s129267 0.0 100919
07:00−33sse1290100 0.0 100819
10:00−31sse228684 0.0 100733
13:00−26sse237755 0.0 1005298
16:00−24sse237565 0.0 1003392
19:00−29e118786 0.0 100519
22:00−31ene118966 0.0 100619
9 march, tue
tue901:00−31e008982 0.0 100619
04:00−32ene009066 0.0 100819
07:00−33n00910 0.0 100919
10:00−29ssw11860 0.0 101021
13:00−24s22830 0.0 1009234
16:00−22sse128537 0.0 1008302
19:00−27ese119898 0.0 100919
22:00−26se119298 0.0 100820
10 march, wed
wed1001:00−25s129299 0.0 100820
04:00−29se119860 0.0 100719
07:00−29s119527 0.0 100819
10:00−25sse118815 0.0 100725
13:00−20s237937 0.0 1006331
16:00−17s258162 0.0 1004471
19:00−19se2286100 0.0 100520
22:00−19se1284100 0.0 100520